Location: Boiro
(42.6475°N, 8.8834°W)
Time: 07:53:05
(UTC+01:00)

Transit 4A - Pass Details

Date: 29 September 2023
Orbit: 864 x 979 km, 66.8° (Epoch: 02 December)

Event Time Altitude Azimuth Distance (km) Brightness Sun altitude
Rises 00:37:56 0° 314° (NW) 3,658 11.8 -42.9°
Reaches altitude 10° 00:41:28 10° 295° (WNW) 2,689 10.8 -43.3°
Enters shadow 00:43:14 15° 280° (W) 2,361 10.3 -43.5°
